Time,TemperatureF,DewpointF,PressureIn,WindDirection,WindDirectionDegrees,WindSpeedMPH,WindSpeedGustMPH,Humidity,HourlyPrecipIn,Conditions,Clouds,dailyrainin,SoftwareType,DateUTC
2013-06-01 00:00:00,40.2,40.2,0.00,North,4,0.2,-999.0,99,0.00,,,-99.99,,2013-06-01 08:00:00,
2013-06-01 00:05:00,40.2,40.1,0.00,WSW,239,2.2,-999.0,99,0.00,,,-99.99,,2013-06-01 08:05:00,
2013-06-01 00:10:00,40.1,40.0,0.00,ESE,103,2.6,-999.0,99,0.00,,,-99.99,,2013-06-01 08:10:00,
2013-06-01 00:15:00,40.3,40.2,0.00,NNW,339,0.2,-999.0,99,0.00,,,-99.99,,2013-06-01 08:15:00,
2013-06-01 00:20:00,40.1,40.0,0.00,NW,306,0.3,-999.0,99,0.00,,,-99.99,,2013-06-01 08:20:00,
2013-06-01 00:25:00,40.1,40.0,0.00,West,259,3.0,-999.0,99,0.00,,,-99.99,,2013-06-01 08:25:00,
2013-06-01 00:30:00,40.3,40.2,0.00,ESE,113,0.2,-999.0,99,0.00,,,-99.99,,2013-06-01 08:30:00,
2013-06-01 00:35:00,40.1,40.0,0.00,WNW,283,3.2,-999.0,99,0.00,,,-99.99,,2013-06-01 08:35:00,
2013-06-01 00:40:00,40.1,40.0,0.00,WNW,292,3.4,-999.0,99,0.00,,,-99.99,,2013-06-01 08:40:00,
2013-06-01 00:45:00,40.2,40.1,0.00,West,269,4.1,-999.0,99,0.00,,,-99.99,,2013-06-01 08:45:00,
2013-06-01 00:50:00,40.2,40.1,0.00,WNW,297,5.5,-999.0,99,0.00,,,-99.99,,2013-06-01 08:50:00,
2013-06-01 00:55:00,40.2,40.1,0.00,WSW,248,2.1,-999.0,99,0.00,,,-99.99,,2013-06-01 08:55:00,
2013-06-01 01:00:00,40.2,40.1,0.00,NW,315,1.3,-999.0,99,0.00,,,-99.99,,2013-06-01 09:00:00,
2013-06-01 01:05:00,40.7,40.6,0.00,WNW,290,4.6,-999.0,99,0.00,,,-99.99,,2013-06-01 09:05:00,
2013-06-01 01:10:00,40.7,40.6,0.00,WNW,287,2.7,-999.0,99,0.00,,,-99.99,,2013-06-01 09:10:00,
2013-06-01 01:15:00,40.6,40.5,0.00,West,277,3.5,-999.0,99,0.00,,,-99.99,,2013-06-01 09:15:00,
2013-06-01 01:20:00,40.5,40.4,0.00,West,275,2.7,-999.0,99,0.00,,,-99.99,,2013-06-01 09:20:00,
2013-06-01 01:25:00,40.3,40.2,0.00,West,269,3.3,-999.0,99,0.00,,,-99.99,,2013-06-01 09:25:00,
2013-06-01 01:30:00,40.4,40.4,0.00,WNW,291,0.0,-999.0,99,0.00,,,-99.99,,2013-06-01 09:30:00,
2013-06-01 01:35:00,40.3,40.3,0.00,WSW,255,2.4,-999.0,99,0.00,,,-99.99,,2013-06-01 09:35:00,
2013-06-01 01:40:00,40.3,40.3,0.00,NW,306,0.0,-999.0,99,0.00,,,-99.99,,2013-06-01 09:40:00,
2013-06-01 01:45:00,40.5,40.4,0.00,West,261,1.6,-999.0,99,0.00,,,-99.99,,2013-06-01 09:45:00,
2013-06-01 01:50:00,40.5,40.4,0.00,West,277,2.2,-999.0,99,0.00,,,-99.99,,2013-06-01 09:50:00,
2013-06-01 01:55:00,40.6,40.5,0.00,West,277,2.7,-999.0,99,0.00,,,-99.99,,2013-06-01 09:55:00,
2013-06-01 02:00:00,40.5,40.4,0.00,WNW,295,2.3,-999.0,99,0.00,,,-99.99,,2013-06-01 10:00:00,
2013-06-01 02:05:00,40.5,40.4,0.00,WNW,284,2.3,-999.0,99,0.00,,,-99.99,,2013-06-01 10:05:00,
2013-06-01 02:10:00,40.5,40.4,0.00,WNW,299,1.4,-999.0,99,0.00,,,-99.99,,2013-06-01 10:10:00,
2013-06-01 02:15:00,40.5,40.4,0.00,NW,306,0.0,-999.0,99,0.00,,,-99.99,,2013-06-01 10:15:00,
2013-06-01 02:20:00,40.5,40.5,0.00,WNW,289,2.5,-999.0,99,0.00,,,-99.99,,2013-06-01 10:20:00,
2013-06-01 02:25:00,40.3,40.3,0.00,WNW,289,3.1,-999.0,99,0.00,,,-99.99,,2013-06-01 10:25:00,
2013-06-01 02:30:00,40.5,40.4,0.00,WNW,290,3.0,-999.0,99,0.00,,,-99.99,,2013-06-01 10:30:00,
2013-06-01 02:35:00,40.6,40.6,0.00,West,272,2.0,-999.0,99,0.00,,,-99.99,,2013-06-01 10:35:00,
2013-06-01 02:40:00,40.7,40.6,0.00,WNW,286,2.0,-999.0,99,0.00,,,-99.99,,2013-06-01 10:40:00,
2013-06-01 02:45:00,40.8,40.7,0.00,WNW,291,2.2,-999.0,99,0.00,,,-99.99,,2013-06-01 10:45:00,
2013-06-01 02:50:00,40.8,40.7,0.00,West,279,1.5,-999.0,99,0.00,,,-99.99,,2013-06-01 10:50:00,
2013-06-01 02:55:00,40.7,40.6,0.00,West,271,0.0,-999.0,99,0.00,,,-99.99,,2013-06-01 10:55:00,
2013-06-01 03:00:00,40.3,40.2,0.00,WSW,252,2.3,-999.0,99,0.00,,,-99.99,,2013-06-01 11:00:00,
2013-06-01 03:05:00,40.3,40.3,0.00,SW,236,2.9,-999.0,99,0.00,,,-99.99,,2013-06-01 11:05:00,
2013-06-01 03:10:00,40.1,40.0,0.00,SSW,213,1.7,-999.0,99,0.00,,,-99.99,,2013-06-01 11:10:00,
2013-06-01 03:15:00,40.2,40.1,0.00,SW,227,2.1,-999.0,99,0.00,,,-99.99,,2013-06-01 11:15:00,
2013-06-01 03:20:00,40.2,40.2,0.00,WSW,243,2.2,-999.0,99,0.00,,,-99.99,,2013-06-01 11:20:00,
2013-06-01 03:25:00,40.3,40.2,0.00,WSW,253,2.4,-999.0,99,0.00,,,-99.99,,2013-06-01 11:25:00,
2013-06-01 03:30:00,40.5,40.4,0.00,WSW,245,2.6,-999.0,99,0.00,,,-99.99,,2013-06-01 11:30:00,
2013-06-01 03:35:00,40.4,40.3,0.00,WSW,243,1.7,-999.0,99,0.00,,,-99.99,,2013-06-01 11:35:00,
2013-06-01 03:40:00,40.5,40.4,0.00,WSW,251,2.2,-999.0,99,0.00,,,-99.99,,2013-06-01 11:40:00,
2013-06-01 03:45:00,40.4,40.3,0.00,West,259,1.0,-999.0,99,0.00,,,-99.99,,2013-06-01 11:45:00,
2013-06-01 03:50:00,40.4,40.3,0.00,WNW,283,2.1,-999.0,99,0.00,,,-99.99,,2013-06-01 11:50:00,
2013-06-01 03:55:00,40.5,40.4,0.00,WNW,283,2.4,-999.0,99,0.00,,,-99.99,,2013-06-01 11:55:00,
2013-06-01 04:00:00,40.4,40.3,0.00,WSW,241,1.5,-999.0,99,0.00,,,-99.99,,2013-06-01 12:00:00,
2013-06-01 04:05:00,40.3,40.3,0.00,West,259,1.8,-999.0,99,0.00,,,-99.99,,2013-06-01 12:05:00,
2013-06-01 04:10:00,40.3,40.2,0.00,WSW,257,2.2,-999.0,99,0.00,,,-99.99,,2013-06-01 12:10:00,
2013-06-01 04:15:00,40.4,40.4,0.00,East,98,0.0,-999.0,99,0.00,,,-99.99,,2013-06-01 12:15:00,
2013-06-01 04:20:00,40.7,40.6,0.00,WSW,242,2.2,-999.0,99,0.00,,,-99.99,,2013-06-01 12:20:00,
2013-06-01 04:25:00,40.4,40.4,0.00,West,259,0.9,-999.0,99,0.00,,,-99.99,,2013-06-01 12:25:00,
2013-06-01 04:30:00,40.4,40.3,0.00,WNW,292,0.8,-999.0,99,0.00,,,-99.99,,2013-06-01 12:30:00,
2013-06-01 04:35:00,40.5,40.4,0.00,West,274,1.5,-999.0,99,0.00,,,-99.99,,2013-06-01 12:35:00,
2013-06-01 04:40:00,40.5,40.4,0.00,SSW,200,0.0,-999.0,99,0.00,,,-99.99,,2013-06-01 12:40:00,
2013-06-01 04:45:00,40.4,40.4,0.00,WSW,248,0.4,-999.0,99,0.00,,,-99.99,,2013-06-01 12:45:00,
2013-06-01 04:50:00,40.4,40.4,0.00,NNW,334,0.9,-999.0,99,0.00,,,-99.99,,2013-06-01 12:50:00,
2013-06-01 04:55:00,40.6,40.5,0.00,WNW,297,2.2,-999.0,99,0.00,,,-99.99,,2013-06-01 12:55:00,
2013-06-01 05:00:00,40.4,40.4,0.00,NE,52,0.0,-999.0,99,0.00,,,-99.99,,2013-06-01 13:00:00,
2013-06-01 05:05:00,40.4,40.3,0.00,WNW,288,5.2,-999.0,99,0.00,,,-99.99,,2013-06-01 13:05:00,
2013-06-01 05:10:00,40.4,40.3,0.00,WSW,251,4.7,-999.0,99,0.00,,,-99.99,,2013-06-01 13:10:00,
2013-06-01 05:15:00,40.3,40.3,0.00,NW,311,2.0,-999.0,99,0.00,,,-99.99,,2013-06-01 13:15:00,
2013-06-01 05:20:00,40.3,40.2,0.00,NW,311,4.7,-999.0,99,0.00,,,-99.99,,2013-06-01 13:20:00,
2013-06-01 05:25:00,40.3,40.3,0.00,West,264,2.7,-999.0,99,0.00,,,-99.99,,2013-06-01 13:25:00,
2013-06-01 05:30:00,40.3,40.2,0.00,WNW,299,5.8,-999.0,99,0.00,,,-99.99,,2013-06-01 13:30:00,
2013-06-01 05:35:00,40.4,40.3,0.00,WNW,282,6.0,-999.0,99,0.00,,,-99.99,,2013-06-01 13:35:00,
2013-06-01 05:40:00,40.5,40.4,0.00,WNW,292,7.4,-999.0,99,0.00,,,-99.99,,2013-06-01 13:40:00,
2013-06-01 05:45:00,40.6,40.5,0.00,NW,313,8.3,-999.0,99,0.00,,,-99.99,,2013-06-01 13:45:00,
2013-06-01 05:50:00,40.6,40.5,0.00,NW,319,8.1,-999.0,99,0.00,,,-99.99,,2013-06-01 13:50:00,
2013-06-01 05:55:00,40.6,40.6,0.00,NW,315,9.3,-999.0,99,0.00,,,-99.99,,2013-06-01 13:55:00,
2013-06-01 06:00:00,40.8,40.7,0.00,NW,311,9.9,-999.0,99,0.00,,,-99.99,,2013-06-01 14:00:00,
2013-06-01 06:05:00,40.8,40.7,0.00,NW,318,8.8,-999.0,99,0.00,,,-99.99,,2013-06-01 14:05:00,
2013-06-01 06:10:00,40.8,40.7,0.00,NNW,327,8.7,-999.0,99,0.00,,,-99.99,,2013-06-01 14:10:00,
2013-06-01 06:15:00,40.8,40.7,0.00,NW,326,8.4,-999.0,99,0.00,,,-99.99,,2013-06-01 14:15:00,
2013-06-01 06:20:00,40.8,40.7,0.00,NW,323,8.4,-999.0,99,0.00,,,-99.99,,2013-06-01 14:20:00,
2013-06-01 06:25:00,40.9,40.9,0.00,NW,311,7.8,-999.0,99,0.00,,,-99.99,,2013-06-01 14:25:00,
2013-06-01 06:30:00,40.9,40.8,0.00,NW,320,7.8,-999.0,99,0.00,,,-99.99,,2013-06-01 14:30:00,
2013-06-01 06:35:00,40.7,40.7,0.00,NW,314,7.8,-999.0,99,0.00,,,-99.99,,2013-06-01 14:35:00,
2013-06-01 06:40:00,40.7,40.7,0.00,NW,320,8.4,-999.0,99,0.00,,,-99.99,,2013-06-01 14:40:00,
2013-06-01 06:45:00,40.8,40.7,0.00,NW,321,8.2,-999.0,99,0.00,,,-99.99,,2013-06-01 14:45:00,
2013-06-01 06:50:00,40.8,40.7,0.00,NW,312,7.9,-999.0,99,0.00,,,-99.99,,2013-06-01 14:50:00,
2013-06-01 06:55:00,40.9,40.8,0.00,NW,307,7.5,-999.0,99,0.00,,,-99.99,,2013-06-01 14:55:00,
2013-06-01 07:00:00,40.9,40.8,0.00,NW,321,6.5,-999.0,99,0.00,,,-99.99,,2013-06-01 15:00:00,
2013-06-01 07:05:00,41.0,40.9,0.00,NW,314,6.0,-999.0,99,0.00,,,-99.99,,2013-06-01 15:05:00,
2013-06-01 07:10:00,40.7,40.6,0.00,NW,317,6.4,-999.0,99,0.00,,,-99.99,,2013-06-01 15:10:00,
2013-06-01 07:15:00,40.8,40.8,0.00,NW,323,5.7,-999.0,99,0.00,,,-99.99,,2013-06-01 15:15:00,
2013-06-01 07:20:00,40.9,40.8,0.00,NW,316,6.2,-999.0,99,0.00,,,-99.99,,2013-06-01 15:20:00,
2013-06-01 07:25:00,40.9,40.9,0.00,NW,316,7.3,-999.0,99,0.00,,,-99.99,,2013-06-01 15:25:00,
2013-06-01 07:30:00,40.9,40.8,0.00,NW,311,7.8,-999.0,99,0.00,,,-99.99,,2013-06-01 15:30:00,
2013-06-01 07:35:00,41.0,41.0,0.00,NW,309,7.4,-999.0,99,0.00,,,-99.99,,2013-06-01 15:35:00,
2013-06-01 07:40:00,41.0,41.0,0.00,NW,306,7.2,-999.0,99,0.00,,,-99.99,,2013-06-01 15:40:00,
2013-06-01 07:45:00,41.1,41.1,0.00,WNW,297,6.8,-999.0,99,0.00,,,-99.99,,2013-06-01 15:45:00,
2013-06-01 07:50:00,40.9,40.9,0.00,NW,322,7.6,-999.0,99,0.00,,,-99.99,,2013-06-01 15:50:00,
2013-06-01 07:55:00,40.9,40.9,0.00,NW,323,8.3,-999.0,99,0.00,,,-99.99,,2013-06-01 15:55:00,
2013-06-01 08:00:00,41.0,40.9,0.00,NW,322,8.1,-999.0,99,0.00,,,-99.99,,2013-06-01 16:00:00,
2013-06-01 08:05:00,41.0,40.9,0.00,NW,320,7.6,-999.0,99,0.00,,,-99.99,,2013-06-01 16:05:00,
2013-06-01 08:11:00,40.8,40.7,0.00,NW,313,8.1,-999.0,99,0.00,,,-99.99,,2013-06-01 16:11:00,
2013-06-01 08:16:00,40.9,40.8,0.00,NW,310,8.8,-999.0,99,0.00,,,-99.99,,2013-06-01 16:16:00,
2013-06-01 08:21:00,40.9,40.8,0.00,NW,326,8.7,-999.0,99,0.00,,,-99.99,,2013-06-01 16:21:00,
2013-06-01 08:26:00,40.8,40.7,0.00,NW,319,7.8,-999.0,99,0.00,,,-99.99,,2013-06-01 16:26:00,
2013-06-01 08:31:00,41.1,41.0,0.00,NW,326,8.6,-999.0,99,0.00,,,-99.99,,2013-06-01 16:31:00,
2013-06-01 08:36:00,41.2,41.1,0.00,NW,316,7.6,-999.0,99,0.00,,,-99.99,,2013-06-01 16:36:00,
2013-06-01 08:41:00,41.4,41.3,0.00,West,271,7.4,-999.0,99,0.00,,,-99.99,,2013-06-01 16:41:00,
2013-06-01 08:46:00,41.4,41.3,0.00,NW,315,5.4,-999.0,99,0.00,,,-99.99,,2013-06-01 16:46:00,
2013-06-01 08:51:00,41.7,41.7,0.00,WNW,303,5.2,-999.0,99,0.00,,,-99.99,,2013-06-01 16:51:00,
2013-06-01 08:56:00,41.7,41.7,0.00,NW,309,5.9,-999.0,99,0.00,,,-99.99,,2013-06-01 16:56:00,
2013-06-01 09:01:00,41.6,41.5,0.00,West,280,2.5,-999.0,99,0.00,,,-99.99,,2013-06-01 17:01:00,
2013-06-01 09:06:00,41.5,41.5,0.00,NW,307,7.3,-999.0,99,0.00,,,-99.99,,2013-06-01 17:06:00,
2013-06-01 09:11:00,41.4,41.3,0.00,NNW,330,6.1,-999.0,99,0.00,,,-99.99,,2013-06-01 17:11:00,
2013-06-01 09:16:00,42.2,42.1,0.00,WNW,292,4.9,-999.0,99,0.00,,,-99.99,,2013-06-01 17:16:00,
2013-06-01 09:21:00,42.4,42.3,0.00,NW,326,4.8,-999.0,99,0.00,,,-99.99,,2013-06-01 17:21:00,
2013-06-01 09:26:00,42.3,42.2,0.00,NW,319,6.1,-999.0,99,0.00,,,-99.99,,2013-06-01 17:26:00,
2013-06-01 09:31:00,42.2,42.1,0.00,NW,317,7.3,-999.0,99,0.00,,,-99.99,,2013-06-01 17:31:00,
2013-06-01 09:36:00,42.3,42.2,0.00,NNW,330,6.8,-999.0,99,0.00,,,-99.99,,2013-06-01 17:36:00,
2013-06-01 09:41:00,42.9,42.8,0.00,NNW,340,5.8,-999.0,99,0.00,,,-99.99,,2013-06-01 17:41:00,
2013-06-01 09:46:00,43.7,43.6,0.00,WNW,284,4.7,-999.0,99,0.00,,,-99.99,,2013-06-01 17:46:00,
2013-06-01 09:51:00,43.3,43.2,0.00,West,259,4.2,-999.0,99,0.00,,,-99.99,,2013-06-01 17:51:00,
2013-06-01 09:56:00,42.8,42.7,0.00,NW,319,5.1,-999.0,99,0.00,,,-99.99,,2013-06-01 17:56:00,
2013-06-01 10:01:00,42.3,42.2,0.00,NNW,332,6.8,-999.0,99,0.00,,,-99.99,,2013-06-01 18:01:00,
2013-06-01 10:06:00,42.3,42.2,0.00,NW,305,4.2,-999.0,99,0.00,,,-99.99,,2013-06-01 18:06:00,
2013-06-01 10:11:00,42.8,42.7,0.00,NW,304,2.6,-999.0,99,0.00,,,-99.99,,2013-06-01 18:11:00,
2013-06-01 10:16:00,42.8,42.7,0.00,WNW,294,6.4,-999.0,99,0.00,,,-99.99,,2013-06-01 18:16:00,
2013-06-01 10:21:00,42.7,42.7,0.00,WNW,296,3.2,-999.0,99,0.00,,,-99.99,,2013-06-01 18:21:00,
2013-06-01 10:26:00,42.9,42.8,0.00,WNW,293,5.6,-999.0,99,0.00,,,-99.99,,2013-06-01 18:26:00,
2013-06-01 10:31:00,43.3,43.3,0.00,WNW,297,1.8,-999.0,99,0.00,,,-99.99,,2013-06-01 18:31:00,
2013-06-01 10:36:00,42.8,42.7,0.00,NW,309,5.3,-999.0,99,0.00,,,-99.99,,2013-06-01 18:36:00,
2013-06-01 10:41:00,43.8,43.7,0.00,NW,318,5.7,-999.0,99,0.00,,,-99.99,,2013-06-01 18:41:00,
2013-06-01 10:46:00,43.3,43.2,0.00,West,276,2.7,-999.0,99,0.00,,,-99.99,,2013-06-01 18:46:00,
2013-06-01 10:51:00,42.8,42.7,0.00,WNW,303,6.4,-999.0,99,0.00,,,-99.99,,2013-06-01 18:51:00,
2013-06-01 10:56:00,42.7,42.6,0.00,WNW,285,4.7,-999.0,99,0.00,,,-99.99,,2013-06-01 18:56:00,
2013-06-01 11:01:00,42.9,42.8,0.00,NW,312,5.8,-999.0,99,0.00,,,-99.99,,2013-06-01 19:01:00,
2013-06-01 11:06:00,43.0,43.0,0.00,NW,307,6.8,-999.0,99,0.00,,,-99.99,,2013-06-01 19:06:00,
2013-06-01 11:11:00,43.7,43.5,0.00,WNW,301,6.1,-999.0,99,0.00,,,-99.99,,2013-06-01 19:11:00,
2013-06-01 11:16:00,43.8,43.7,0.00,NNW,329,6.9,-999.0,99,0.00,,,-99.99,,2013-06-01 19:16:00,
2013-06-01 11:21:00,43.3,43.2,0.00,NW,312,2.2,-999.0,99,0.00,,,-99.99,,2013-06-01 19:21:00,
2013-06-01 11:26:00,43.4,43.3,0.00,WNW,303,6.6,-999.0,99,0.00,,,-99.99,,2013-06-01 19:26:00,
2013-06-01 11:31:00,43.5,43.3,0.00,NW,305,6.4,-999.0,99,0.00,,,-99.99,,2013-06-01 19:31:00,
2013-06-01 11:36:00,43.2,43.0,0.00,WNW,303,5.9,-999.0,99,0.00,,,-99.99,,2013-06-01 19:36:00,
2013-06-01 11:41:00,44.2,44.0,0.00,WNW,300,7.1,-999.0,99,0.00,,,-99.99,,2013-06-01 19:41:00,
2013-06-01 11:46:00,44.6,44.5,0.00,West,274,6.7,-999.0,99,0.00,,,-99.99,,2013-06-01 19:46:00,
2013-06-01 11:51:00,45.1,44.9,0.00,West,278,2.2,-999.0,99,0.00,,,-99.99,,2013-06-01 19:51:00,
2013-06-01 11:56:00,45.4,45.2,0.00,West,272,6.7,-999.0,99,0.00,,,-99.99,,2013-06-01 19:56:00,
2013-06-01 12:01:00,44.7,44.5,0.00,NNW,329,6.4,-999.0,99,0.00,,,-99.99,,2013-06-01 20:01:00,
2013-06-01 12:06:00,45.1,44.9,0.00,WNW,293,6.6,-999.0,99,0.00,,,-99.99,,2013-06-01 20:06:00,
2013-06-01 12:11:00,44.5,44.2,0.00,WNW,294,6.8,-999.0,99,0.00,,,-99.99,,2013-06-01 20:11:00,
2013-06-01 12:16:00,46.3,46.1,0.00,West,261,2.0,-999.0,99,0.00,,,-99.99,,2013-06-01 20:16:00,
2013-06-01 12:21:00,45.5,45.2,0.00,NW,305,6.7,-999.0,98,0.00,,,-99.99,,2013-06-01 20:21:00,
2013-06-01 12:26:00,46.2,45.9,0.00,West,266,3.4,-999.0,98,0.00,,,-99.99,,2013-06-01 20:26:00,
2013-06-01 12:31:00,46.8,46.5,0.00,South,191,1.3,-999.0,98,0.00,,,-99.99,,2013-06-01 20:31:00,
2013-06-01 12:36:00,45.7,44.8,0.00,West,275,3.7,-999.0,96,0.00,,,-99.99,,2013-06-01 20:36:00,
2013-06-01 12:41:00,45.2,44.3,0.00,WNW,285,4.5,-999.0,96,0.00,,,-99.99,,2013-06-01 20:41:00,
2013-06-01 12:46:00,45.6,44.8,0.00,West,259,4.5,-999.0,97,0.00,,,-99.99,,2013-06-01 20:46:00,
2013-06-01 12:51:00,45.8,44.8,0.00,West,263,7.5,-999.0,96,0.00,,,-99.99,,2013-06-01 20:51:00,
2013-06-01 12:56:00,46.0,45.1,0.00,SW,219,2.5,-999.0,96,0.00,,,-99.99,,2013-06-01 20:56:00,
2013-06-01 13:01:00,44.9,43.4,0.00,NW,304,6.8,-999.0,94,0.00,,,-99.99,,2013-06-01 21:01:00,
2013-06-01 13:06:00,44.9,43.9,0.00,West,268,5.4,-999.0,96,0.00,,,-99.99,,2013-06-01 21:06:00,
2013-06-01 13:11:00,45.8,45.0,0.00,WNW,283,5.4,-999.0,97,0.00,,,-99.99,,2013-06-01 21:11:00,
2013-06-01 13:16:00,46.6,45.8,0.00,ENE,72,0.6,-999.0,97,0.00,,,-99.99,,2013-06-01 21:16:00,
2013-06-01 13:21:00,46.9,45.8,0.00,South,180,5.1,-999.0,96,0.00,,,-99.99,,2013-06-01 21:21:00,
2013-06-01 13:28:00,46.3,44.9,0.00,WNW,291,7.9,-999.0,94,0.00,,,-99.99,,2013-06-01 21:28:00,
2013-06-01 13:33:00,46.8,45.8,0.00,NNE,16,0.2,-999.0,96,0.00,,,-99.99,,2013-06-01 21:33:00,
2013-06-01 13:38:00,46.7,45.5,0.00,NNW,335,0.4,-999.0,95,0.00,,,-99.99,,2013-06-01 21:38:00,
2013-06-01 13:43:00,46.3,45.0,0.00,West,263,5.9,-999.0,95,0.00,,,-99.99,,2013-06-01 21:43:00,
2013-06-01 13:48:00,46.0,44.3,0.00,NW,304,6.9,-999.0,93,0.00,,,-99.99,,2013-06-01 21:48:00,
2013-06-01 13:53:00,46.7,45.6,0.00,ENE,63,1.0,-999.0,95,0.00,,,-99.99,,2013-06-01 21:53:00,
2013-06-01 13:58:00,45.7,44.5,0.00,WSW,240,4.0,-999.0,95,0.00,,,-99.99,,2013-06-01 21:58:00,
2013-06-01 14:03:00,46.7,45.5,0.00,North,353,4.8,-999.0,95,0.00,,,-99.99,,2013-06-01 22:03:00,
2013-06-01 14:08:00,46.8,45.7,0.00,East,92,2.0,-999.0,95,0.00,,,-99.99,,2013-06-01 22:08:00,
2013-06-01 14:13:00,46.8,45.4,0.00,NW,309,0.8,-999.0,95,0.00,,,-99.99,,2013-06-01 22:13:00,
2013-06-01 14:18:00,46.4,45.1,0.00,WNW,285,4.4,-999.0,95,0.00,,,-99.99,,2013-06-01 22:18:00,
2013-06-01 14:23:00,46.5,45.0,0.00,NNW,342,0.0,-999.0,94,0.00,,,-99.99,,2013-06-01 22:23:00,
2013-06-01 14:28:00,46.1,44.3,0.00,ESE,120,0.2,-999.0,93,0.00,,,-99.99,,2013-06-01 22:28:00,
2013-06-01 14:33:00,46.5,44.8,0.00,West,264,0.8,-999.0,93,0.00,,,-99.99,,2013-06-01 22:33:00,
2013-06-01 14:38:00,46.7,44.4,0.00,SW,223,1.1,-999.0,91,0.00,,,-99.99,,2013-06-01 22:38:00,
2013-06-01 14:43:00,46.9,44.2,0.00,South,181,1.6,-999.0,90,0.00,,,-99.99,,2013-06-01 22:43:00,
2013-06-01 14:48:00,46.4,44.1,0.00,WNW,296,1.0,-999.0,91,0.00,,,-99.99,,2013-06-01 22:48:00,
2013-06-01 14:53:00,46.4,44.2,0.00,ENE,78,0.8,-999.0,91,0.00,,,-99.99,,2013-06-01 22:53:00,
2013-06-01 14:58:00,46.2,43.8,0.00,NNW,338,11.7,-999.0,91,0.00,,,-99.99,,2013-06-01 22:58:00,
2013-06-01 15:03:00,46.0,42.9,0.00,NW,311,11.5,-999.0,89,0.00,,,-99.99,,2013-06-01 23:03:00,
2013-06-01 15:08:00,45.9,43.2,0.00,NW,318,13.7,-999.0,90,0.00,,,-99.99,,2013-06-01 23:08:00,
2013-06-01 15:13:00,45.3,43.0,0.00,WNW,301,16.0,-999.0,91,0.00,,,-99.99,,2013-06-01 23:13:00,
2013-06-01 15:18:00,45.3,43.4,0.00,NNW,334,10.6,-999.0,93,0.00,,,-99.99,,2013-06-01 23:18:00,
2013-06-01 15:23:00,45.1,43.2,0.00,West,279,11.6,-999.0,93,0.00,,,-99.99,,2013-06-01 23:23:00,
2013-06-01 15:28:00,44.9,43.1,0.00,NW,306,3.1,-999.0,93,0.00,,,-99.99,,2013-06-01 23:28:00,
2013-06-01 15:33:00,45.6,44.0,0.00,SSW,202,2.6,-999.0,94,0.00,,,-99.99,,2013-06-01 23:33:00,
2013-06-01 15:38:00,44.7,43.1,0.00,NW,322,13.9,-999.0,94,0.00,,,-99.99,,2013-06-01 23:38:00,
2013-06-01 15:43:00,44.9,43.6,0.00,WNW,299,9.9,-999.0,95,0.00,,,-99.99,,2013-06-01 23:43:00,
2013-06-01 15:48:00,45.8,44.2,0.00,SE,145,3.5,-999.0,94,0.00,,,-99.99,,2013-06-01 23:48:00,
2013-06-01 15:53:00,45.5,43.9,0.00,West,272,1.4,-999.0,94,0.00,,,-99.99,,2013-06-01 23:53:00,
2013-06-01 15:58:00,44.9,43.4,0.00,NW,306,10.3,-999.0,94,0.00,,,-99.99,,2013-06-01 23:58:00,
2013-06-01 16:03:00,44.7,43.5,0.00,WNW,289,11.9,-999.0,95,0.00,,,-99.99,,2013-06-02 00:03:00,
2013-06-01 16:08:00,45.0,43.6,0.00,WNW,284,7.6,-999.0,94,0.00,,,-99.99,,2013-06-02 00:08:00,
2013-06-01 16:13:00,45.0,43.6,0.00,NW,305,14.0,-999.0,95,0.00,,,-99.99,,2013-06-02 00:13:00,
2013-06-01 16:18:00,45.5,44.2,0.00,SSE,155,2.9,-999.0,95,0.00,,,-99.99,,2013-06-02 00:18:00,
2013-06-01 16:23:00,45.5,44.1,0.00,WNW,297,1.7,-999.0,95,0.00,,,-99.99,,2013-06-02 00:23:00,
2013-06-01 16:28:00,46.1,44.6,0.00,NNE,18,2.0,-999.0,94,0.00,,,-99.99,,2013-06-02 00:28:00,
2013-06-01 16:33:00,46.7,45.6,0.00,NNE,19,0.5,-999.0,95,0.00,,,-99.99,,2013-06-02 00:33:00,
2013-06-01 16:38:00,47.9,45.7,0.00,East,89,1.4,-999.0,91,0.00,,,-99.99,,2013-06-02 00:38:00,
2013-06-01 16:43:00,48.2,44.0,0.00,WNW,301,11.0,-999.0,85,0.00,,,-99.99,,2013-06-02 00:43:00,
2013-06-01 16:48:00,47.6,44.5,0.00,SW,232,4.7,-999.0,89,0.00,,,-99.99,,2013-06-02 00:48:00,
2013-06-01 16:53:00,47.3,44.3,0.00,WNW,300,9.0,-999.0,89,0.00,,,-99.99,,2013-06-02 00:53:00,
2013-06-01 16:58:00,47.7,43.6,0.00,WNW,302,12.3,-999.0,85,0.00,,,-99.99,,2013-06-02 00:58:00,
2013-06-01 17:03:00,48.5,44.9,0.00,NNW,345,4.9,-999.0,87,0.00,,,-99.99,,2013-06-02 01:03:00,
2013-06-01 17:08:00,48.1,43.4,0.00,WNW,290,8.2,-999.0,83,0.00,,,-99.99,,2013-06-02 01:08:00,
2013-06-01 17:13:00,48.0,44.1,0.00,ENE,71,1.7,-999.0,86,0.00,,,-99.99,,2013-06-02 01:13:00,
2013-06-01 17:18:00,46.3,43.5,0.00,NW,325,0.5,-999.0,89,0.00,,,-99.99,,2013-06-02 01:18:00,
2013-06-01 17:23:00,46.3,43.8,0.00,ENE,72,1.8,-999.0,91,0.00,,,-99.99,,2013-06-02 01:23:00,
2013-06-01 17:28:00,46.1,42.5,0.00,NW,314,3.7,-999.0,87,0.00,,,-99.99,,2013-06-02 01:28:00,
2013-06-01 17:33:00,45.3,42.1,0.00,SW,222,0.2,-999.0,88,0.00,,,-99.99,,2013-06-02 01:33:00,
2013-06-01 17:38:00,44.7,41.4,0.00,South,177,2.3,-999.0,88,0.00,,,-99.99,,2013-06-02 01:38:00,
2013-06-01 17:43:00,44.7,41.5,0.00,NE,37,0.6,-999.0,88,0.00,,,-99.99,,2013-06-02 01:43:00,
2013-06-01 17:48:00,45.0,42.1,0.00,ENE,65,3.9,-999.0,89,0.00,,,-99.99,,2013-06-02 01:48:00,
2013-06-01 17:53:00,45.2,42.2,0.00,South,189,3.2,-999.0,89,0.00,,,-99.99,,2013-06-02 01:53:00,
2013-06-01 17:58:00,45.0,42.2,0.00,SSW,192,0.9,-999.0,89,0.00,,,-99.99,,2013-06-02 01:58:00,
2013-06-01 18:03:00,45.3,42.6,0.00,SSE,148,0.5,-999.0,90,0.00,,,-99.99,,2013-06-02 02:03:00,
2013-06-01 18:08:00,45.7,42.6,0.00,North,10,4.1,-999.0,88,0.00,,,-99.99,,2013-06-02 02:08:00,
2013-06-01 18:13:00,45.2,41.9,0.00,WNW,285,7.4,-999.0,88,0.00,,,-99.99,,2013-06-02 02:13:00,
2013-06-01 18:18:00,45.0,42.2,0.00,WSW,244,6.1,-999.0,90,0.00,,,-99.99,,2013-06-02 02:18:00,
2013-06-01 18:23:00,45.5,42.6,0.00,West,263,2.2,-999.0,89,0.00,,,-99.99,,2013-06-02 02:23:00,
2013-06-01 18:28:00,45.6,42.7,0.00,SSW,206,1.8,-999.0,89,0.00,,,-99.99,,2013-06-02 02:28:00,
2013-06-01 18:33:00,45.2,42.5,0.00,ESE,119,0.6,-999.0,90,0.00,,,-99.99,,2013-06-02 02:33:00,
2013-06-01 18:38:00,45.2,42.5,0.00,NW,306,2.6,-999.0,90,0.00,,,-99.99,,2013-06-02 02:38:00,
2013-06-01 18:43:00,45.4,42.1,0.00,West,279,8.0,-999.0,88,0.00,,,-99.99,,2013-06-02 02:43:00,
2013-06-01 18:48:00,44.7,41.5,0.00,NW,307,11.4,-999.0,88,0.00,,,-99.99,,2013-06-02 02:48:00,
2013-06-01 18:53:00,44.7,41.9,0.00,WNW,288,7.8,-999.0,89,0.00,,,-99.99,,2013-06-02 02:53:00,
2013-06-01 18:58:00,45.0,41.8,0.00,West,280,9.9,-999.0,88,0.00,,,-99.99,,2013-06-02 02:58:00,
2013-06-01 19:03:00,45.0,41.8,0.00,WNW,291,7.3,-999.0,88,0.00,,,-99.99,,2013-06-02 03:03:00,
2013-06-01 19:08:00,44.6,42.1,0.00,NW,304,10.9,-999.0,90,0.00,,,-99.99,,2013-06-02 03:08:00,
2013-06-01 19:13:00,44.4,41.7,0.00,WNW,299,16.0,-999.0,90,0.00,,,-99.99,,2013-06-02 03:13:00,
2013-06-01 19:18:00,44.0,41.1,0.00,NW,312,16.3,-999.0,89,0.00,,,-99.99,,2013-06-02 03:18:00,
2013-06-01 19:23:00,43.7,41.2,0.00,NW,304,15.1,-999.0,90,0.00,,,-99.99,,2013-06-02 03:23:00,
2013-06-01 19:28:00,43.7,41.0,0.00,NW,320,14.4,-999.0,90,0.00,,,-99.99,,2013-06-02 03:28:00,
2013-06-01 19:33:00,43.8,40.7,0.00,NW,317,15.9,-999.0,89,0.00,,,-99.99,,2013-06-02 03:33:00,
2013-06-01 19:38:00,43.2,40.2,0.00,NW,304,12.3,-999.0,88,0.00,,,-99.99,,2013-06-02 03:38:00,
2013-06-01 19:43:00,42.9,40.0,0.00,WNW,298,14.7,-999.0,89,0.00,,,-99.99,,2013-06-02 03:43:00,
2013-06-01 19:48:00,42.7,39.8,0.00,WNW,295,18.4,-999.0,89,0.00,,,-99.99,,2013-06-02 03:48:00,
2013-06-01 19:53:00,42.5,39.9,0.00,NW,310,16.8,-999.0,90,0.00,,,-99.99,,2013-06-02 03:53:00,
2013-06-01 19:58:00,43.0,40.9,0.00,NW,311,3.5,-999.0,92,0.00,,,-99.99,,2013-06-02 03:58:00,
2013-06-01 20:01:00,43.3,40.6,0.00,West,278,9.2,-999.0,90,0.00,,,-99.99,,2013-06-02 04:01:00,
2013-06-01 20:02:00,42.8,40.2,0.00,West,272,14.2,-999.0,90,0.00,,,-99.99,,2013-06-02 04:02:00,
2013-06-01 20:04:00,42.6,40.2,0.00,NW,310,18.6,-999.0,91,0.00,,,-99.99,,2013-06-02 04:04:00,
2013-06-01 20:06:00,42.4,40.4,0.00,WNW,298,16.3,-999.0,92,0.00,,,-99.99,,2013-06-02 04:06:00,
2013-06-01 20:07:00,42.3,40.2,0.00,NW,304,19.3,-999.0,92,0.00,,,-99.99,,2013-06-02 04:07:00,
2013-06-01 20:12:00,42.6,39.8,0.00,WNW,302,16.1,-999.0,90,0.00,,,-99.99,,2013-06-02 04:12:00,
2013-06-01 20:17:00,42.4,40.2,0.00,WNW,286,18.0,-999.0,92,0.00,,,-99.99,,2013-06-02 04:17:00,
2013-06-01 20:22:00,42.2,40.0,0.00,WNW,295,16.7,-999.0,91,0.00,,,-99.99,,2013-06-02 04:22:00,
2013-06-01 20:27:00,42.1,39.6,0.00,WNW,302,16.4,-999.0,90,0.00,,,-99.99,,2013-06-02 04:27:00,
2013-06-01 20:32:00,42.1,39.5,0.00,WNW,296,21.0,-999.0,90,0.00,,,-99.99,,2013-06-02 04:32:00,
2013-06-01 20:37:00,41.9,39.5,0.00,NW,306,15.2,-999.0,91,0.00,,,-99.99,,2013-06-02 04:37:00,
2013-06-01 20:42:00,42.1,39.7,0.00,NW,313,18.2,-999.0,91,0.00,,,-99.99,,2013-06-02 04:42:00,
2013-06-01 20:47:00,41.8,39.4,0.00,NW,318,15.8,-999.0,91,0.00,,,-99.99,,2013-06-02 04:47:00,
2013-06-01 20:52:00,42.0,39.5,0.00,NW,316,18.7,-999.0,90,0.00,,,-99.99,,2013-06-02 04:52:00,
2013-06-01 20:57:00,41.8,39.4,0.00,NW,308,14.1,-999.0,90,0.00,,,-99.99,,2013-06-02 04:57:00,
2013-06-01 21:02:00,42.1,39.3,0.00,NW,308,19.5,-999.0,90,0.00,,,-99.99,,2013-06-02 05:02:00,
2013-06-01 21:07:00,42.0,39.4,0.00,NW,308,19.4,-999.0,90,0.03,,,-99.99,,2013-06-02 05:07:00,
2013-06-01 21:12:00,41.7,39.0,0.00,WNW,303,19.2,-999.0,90,0.03,,,-99.99,,2013-06-02 05:12:00,
2013-06-01 21:17:00,41.7,39.0,0.00,NW,320,19.3,-999.0,90,0.03,,,-99.99,,2013-06-02 05:17:00,
2013-06-01 21:22:00,41.5,39.1,0.00,NW,310,20.9,-999.0,91,0.03,,,-99.99,,2013-06-02 05:22:00,
2013-06-01 21:27:00,41.4,38.9,0.00,NW,317,19.2,-999.0,91,0.03,,,-99.99,,2013-06-02 05:27:00,
2013-06-01 21:32:00,41.3,38.9,0.00,NW,312,19.2,-999.0,91,0.03,,,-99.99,,2013-06-02 05:32:00,
2013-06-01 21:37:00,41.3,38.7,0.00,NW,315,21.5,-999.0,90,0.03,,,-99.99,,2013-06-02 05:37:00,
2013-06-01 21:42:00,41.3,39.0,0.00,NW,322,18.4,-999.0,91,0.03,,,-99.99,,2013-06-02 05:42:00,
2013-06-01 21:47:00,41.3,38.6,0.00,NW,322,20.8,-999.0,90,0.03,,,-99.99,,2013-06-02 05:47:00,
2013-06-01 21:52:00,41.1,38.5,0.00,NW,314,22.3,-999.0,90,0.03,,,-99.99,,2013-06-02 05:52:00,
2013-06-01 21:57:00,40.9,38.3,0.00,NNW,327,18.3,-999.0,90,0.03,,,-99.99,,2013-06-02 05:57:00,
2013-06-01 22:02:00,41.0,38.7,0.00,NNW,327,13.2,-999.0,91,0.00,,,-99.99,,2013-06-02 06:02:00,
2013-06-01 22:07:00,41.0,38.3,0.00,NNW,337,15.7,-999.0,90,0.00,,,-99.99,,2013-06-02 06:07:00,
2013-06-01 22:12:00,41.0,38.1,0.00,NW,324,14.6,-999.0,89,0.00,,,-99.99,,2013-06-02 06:12:00,
2013-06-01 22:17:00,40.7,38.0,0.00,NW,322,19.0,-999.0,90,0.00,,,-99.99,,2013-06-02 06:17:00,
2013-06-01 22:22:00,40.7,38.2,0.00,NW,316,17.7,-999.0,90,0.00,,,-99.99,,2013-06-02 06:22:00,
2013-06-01 22:27:00,40.7,38.4,0.00,NW,317,18.1,-999.0,91,0.00,,,-99.99,,2013-06-02 06:27:00,
2013-06-01 22:32:00,40.6,38.2,0.00,NW,316,23.0,-999.0,91,0.00,,,-99.99,,2013-06-02 06:32:00,
2013-06-01 22:37:00,40.5,37.8,0.00,NW,322,22.4,-999.0,90,0.00,,,-99.99,,2013-06-02 06:37:00,
2013-06-01 22:42:00,40.4,37.7,0.00,NNW,329,21.4,-999.0,90,0.00,,,-99.99,,2013-06-02 06:42:00,
2013-06-01 22:47:00,40.4,37.6,0.00,NNW,333,22.4,-999.0,89,0.00,,,-99.99,,2013-06-02 06:47:00,
2013-06-01 22:52:00,40.4,37.6,0.00,NNW,329,16.4,-999.0,89,0.00,,,-99.99,,2013-06-02 06:52:00,
2013-06-01 22:57:00,40.1,37.2,0.00,NNW,339,16.5,-999.0,89,0.00,,,-99.99,,2013-06-02 06:57:00,
2013-06-01 23:02:00,40.0,37.2,0.00,NNW,341,15.3,-999.0,89,0.00,,,-99.99,,2013-06-02 07:02:00,
2013-06-01 23:07:00,40.0,37.0,0.00,NW,318,17.1,-999.0,89,0.00,,,-99.99,,2013-06-02 07:07:00,
2013-06-01 23:12:00,40.0,37.3,0.00,NW,318,16.4,-999.0,90,0.00,,,-99.99,,2013-06-02 07:12:00,
2013-06-01 23:17:00,40.1,37.5,0.00,NW,317,19.4,-999.0,90,0.00,,,-99.99,,2013-06-02 07:17:00,
2013-06-01 23:22:00,39.8,37.2,0.00,NW,316,17.8,-999.0,90,0.00,,,-99.99,,2013-06-02 07:22:00,
2013-06-01 23:27:00,39.8,37.1,0.00,NW,314,19.1,-999.0,90,0.00,,,-99.99,,2013-06-02 07:27:00,
2013-06-01 23:32:00,39.8,36.5,0.00,NW,321,22.0,-999.0,88,0.00,,,-99.99,,2013-06-02 07:32:00,
2013-06-01 23:37:00,39.7,36.3,0.00,NNW,327,21.8,-999.0,87,0.00,,,-99.99,,2013-06-02 07:37:00,
2013-06-01 23:42:00,39.9,36.7,0.00,NW,316,21.7,-999.0,88,0.00,,,-99.99,,2013-06-02 07:42:00,
2013-06-01 23:47:00,39.2,36.4,0.00,WNW,303,21.8,-999.0,89,0.00,,,-99.99,,2013-06-02 07:47:00,
2013-06-01 23:52:00,39.0,36.4,0.00,NW,304,17.9,-999.0,90,0.00,,,-99.99,,2013-06-02 07:52:00,
2013-06-01 23:57:00,39.2,36.4,0.00,NW,307,20.0,-999.0,89,0.00,,,-99.99,,2013-06-02 07:57:00,